Wetterdaten Herbst 2020

Datum T max T min Regen
01.09.2020 16.9 °C 12.8 °C 1.2 mm
02.09.2020 18.9 °C 9.1 °C 0 mm
03.09.2020 21.9 °C 9.6 °C 0 mm
04.09.2020 26.7 °C 14.8 °C 0 mm
05.09.2020 23.9 °C 13.7 °C 0 mm
06.09.2020 18.3 °C 12.7 °C 0 mm
07.09.2020 19.8 °C 7.8 °C 0 mm
08.09.2020 22.2 °C 8.2 °C 0 mm
09.09.2020 24.9 °C 10.4 °C 0 mm
10.09.2020 21.1 °C 13.3 °C 0 mm
11.09.2020 23.3 °C 15.4 °C 0 mm
12.09.2020 25.5 °C 13.7 °C 0 mm
13.09.2020 26.3 °C 12.3 °C 0 mm
14.09.2020 28.1 °C 12.1 °C 0 mm
15.09.2020 27.7 °C 13.1 °C 0 mm
16.09.2020 26 °C 13.3 °C 0 mm
17.09.2020 20.8 °C 14.8 °C 0 mm
18.09.2020 22.5 °C 10.2 °C 0 mm
19.09.2020 21.9 °C 8.3 °C 0 mm
20.09.2020 21.9 °C 9.1 °C 0 mm
21.09.2020 23.7 °C 8.4 °C 0 mm
22.09.2020 24.1 °C 11.8 °C 0 mm
23.09.2020 20.3 °C 14.3 °C 0 mm
24.09.2020 20.9 °C 13.3 °C 10 mm
25.09.2020 13.4 °C 8.4 °C 0.8 mm
26.09.2020 8.7 °C 6.5 °C 5 mm
27.09.2020 13.4 °C 5.8 °C 3.2 mm
28.09.2020 15.6 °C 3.1 °C 0 mm
29.09.2020 12.9 °C 8.6 °C 1.6 mm
30.09.2020 16.6 °C 10.3 °C 0.6 mm
01.10.2020 17.9 °C 8.1 °C 0.4 mm
02.10.2020 19 °C 10.3 °C 0 mm
03.10.2020 13.9 °C 8.7 °C 2.6 mm
04.10.2020 17.1 °C 8.4 °C 3.4 mm
05.10.2020 14.1 °C 8.8 °C 2.8 mm
06.10.2020 15.2 °C 9.8 °C 3 mm
07.10.2020 14.2 °C 9.3 °C 2.4 mm
08.10.2020 17.6 °C 8.6 °C 0.2 mm
09.10.2020 17.6 °C 12.2 °C 0.8 mm
10.10.2020 13.1 °C 6.1 °C 3 mm
11.10.2020 10.2 °C 3.3 °C 0.6 mm
12.10.2020 10.6 °C 3.2 °C 0.4 mm
13.10.2020 11.2 °C 3.4 °C 0 mm
14.10.2020 9.1 °C 2.2 °C 1.4 mm
15.10.2020 8.7 °C 5.9 °C 1 mm
16.10.2020 8.6 °C 6.3 °C 1.6 mm
17.10.2020 9 °C 5.3 °C 0 mm
18.10.2020 9.8 °C 3.4 °C 0.6 mm
19.10.2020 12.3 °C 4.8 °C 0 mm
20.10.2020 15.2 °C 2.4 °C 0 mm
21.10.2020 16.9 °C 8 °C 0 mm
22.10.2020 20.3 °C 12.9 °C 0.4 mm
23.10.2020 14.9 °C 12.6 °C 8 mm
24.10.2020 15.7 °C 7.3 °C 0.4 mm
25.10.2020 17.9 °C 4.9 °C 0 mm
26.10.2020 10.8 °C 6.6 °C 5.8 mm
27.10.2020 11.8 °C 4.8 °C 0.2 mm
28.10.2020 14 °C 8.3 °C 1 mm
29.10.2020 11.8 °C 7.8 °C 5.6 mm
30.10.2020 13.8 °C 9.3 °C 0.4 mm
31.10.2020 16.4 °C 6.5 °C 0 mm
01.11.2020 14.8 °C 6.7 °C 4.2 mm
02.11.2020 21.1 °C 14.8 °C 0 mm
03.11.2020 17 °C 8.3 °C 1.4 mm
04.11.2020 9 °C 6.2 °C 0 mm
05.11.2020 10.4 °C 1.1 °C 0 mm
06.11.2020 9.7 °C -1.8 °C 0 mm
07.11.2020 11.9 °C 1.2 °C 0 mm
08.11.2020 14.4 °C 1.8 °C 0 mm
09.11.2020 13.2 °C 4.4 °C 0 mm
10.11.2020 6.9 °C 3.4 °C 0 mm
11.11.2020 8.5 °C 5.8 °C 0 mm
12.11.2020 12.2 °C 4.6 °C 0 mm
13.11.2020 15.9 °C 7.2 °C 0 mm
14.11.2020 16.3 °C 6.7 °C 0 mm
15.11.2020 16.7 °C 4.2 °C 0.2 mm
16.11.2020 12.8 °C 8.3 °C 2.8 mm
17.11.2020 12.4 °C 4.3 °C 0.2 mm
18.11.2020 12.9 °C 2.2 °C 0 mm
19.11.2020 11.6 °C 2.6 °C 0.4 mm
20.11.2020 6.1 °C -0.3 °C 0.6 mm
22.11.2020 6.3 °C -3.3 °C 0 mm
23.11.2020 6.2 °C 1.4 °C 0.6 mm
24.11.2020 6.3 °C 0 °C 0 mm
25.11.2020 5.2 °C -2.5 °C 0 mm
26.11.2020 5.9 °C -3.3 °C 0 mm
27.11.2020 6.2 °C -2.4 °C 0 mm
29.11.2020 2.7 °C -3.6 °C 0 mm
30.11.2020 1.1 °C -6.5 °C 0 mm
 Hinweis zur Datenqualität
∅ Temperatur

10.6 °C

Abweichung vom Mittel

+0.4 °C

Niederschlag

78.8 mm

Abweichung vom Mittel

52 %

28.1 °C

Lufttemperatur
14.09.2020

1038 hPa

Luftdruck
05.11.2020

30.6 km/h

Windböen
26.09.2020

78.8 mm

Niederschlag
 

-6.5 °C

Lufttemperatur
30.11.2020

-5.6 °C

Bodentemperatur 5cm
01.01.1970

987 hPa

Luftdruck
02.10.2020
 Hinweis zur Datenqualität